sat.trackr.live / text

‹ back to catalog

STARLINK-37249

NORAD 68625 · 2026-073Z

PAYLOAD ACTIVE UNKNOWN

§ Identity

Operator
Country
US
Launch date
2026-04-07
Launch site
AFWTR
Launch vehicle
Mass (kg)
RCS (m²)

Purposes: comms

External: N2YO · Heavens-Above · Gunter

§ Orbital elements

Epoch: 2026-09-19T23:32:37.042656Z

Period
93.91 min
Inclination
97.2856°
Eccentricity
0.0002113
Mean motion
15.33445909 rev/d
Perigee alt
464.1 km
Apogee alt
467.0 km
Semi-major
6,843.7 km
B*
4.3482e-4
RAAN
101.0442°
Arg perigee
78.3212°
Mean anomaly
281.8268°
Rev number
2,566

§ Raw data

STARLINK-372491 68625U 26073Z   26262.98098429  .00013990  00000+0  43482-3 0  99972 68625  97.2856 101.0442 0002113  78.3212 281.8268 15.33445909 25665

JSON: /api/v1/satellites/68625 · /tle

For live sub-satellite position, see the globe view (requires WebGL).

§ Visibility from observer

Set your observer location to see the next 7 days of passes ≥ 10°. The values pass through the URL so the page stays shareable.

No JS? Fill the form by hand. The geolocation button needs JavaScript.